TimeCST,TemperatureF,Dew PointF,Humidity,Sea Level PressureIn,VisibilityMPH,Wind Direction,Wind SpeedMPH,Gust SpeedMPH,PrecipitationIn,Events,Conditions,WindDirDegrees,DateUTC
12:54 AM,24.1,16.0,71,30.44,10.0,NNW,10.4,-,N/A,,Overcast,340,2013-03-06 06:54:00
1:54 AM,24.1,16.0,71,30.45,7.0,North,16.1,-,N/A,,Overcast,350,2013-03-06 07:54:00
2:54 AM,23.0,15.1,72,30.45,8.0,North,13.8,-,N/A,,Overcast,360,2013-03-06 08:54:00
3:54 AM,23.0,15.1,72,30.45,6.0,North,12.7,-,N/A,,Haze,350,2013-03-06 09:54:00
4:54 AM,23.0,15.1,72,30.44,10.0,North,8.1,-,N/A,,Overcast,360,2013-03-06 10:54:00
5:54 AM,21.9,15.1,75,30.47,10.0,NNW,5.8,-,N/A,,Overcast,340,2013-03-06 11:54:00
6:54 AM,21.9,15.1,75,30.46,10.0,NNW,5.8,-,N/A,,Overcast,340,2013-03-06 12:54:00
7:54 AM,23.0,16.0,74,30.47,10.0,North,4.6,-,N/A,,Overcast,360,2013-03-06 13:54:00
8:54 AM,24.1,16.0,71,30.47,10.0,NW,4.6,-,N/A,,Overcast,320,2013-03-06 14:54:00
9:54 AM,27.0,17.1,66,30.46,10.0,Calm,Calm,-,N/A,,Scattered Clouds,0,2013-03-06 15:54:00
10:54 AM,28.9,18.0,64,30.45,10.0,ENE,3.5,-,N/A,,Clear,60,2013-03-06 16:54:00
11:25 AM,30.2,19.4,64,30.42,10.0,ESE,5.8,-,N/A,,Mostly Cloudy,110,2013-03-06 17:25:00
11:54 AM,30.9,19.0,61,30.43,10.0,Variable,3.5,-,N/A,,Partly Cloudy,0,2013-03-06 17:54:00
12:54 PM,32.0,18.0,56,30.41,10.0,SSE,3.5,-,N/A,,Clear,150,2013-03-06 18:54:00
1:54 PM,35.1,19.9,54,30.37,10.0,Variable,4.6,-,N/A,,Partly Cloudy,0,2013-03-06 19:54:00
2:54 PM,37.0,21.0,52,30.35,10.0,South,8.1,-,N/A,,Clear,170,2013-03-06 20:54:00
3:54 PM,37.9,21.0,51,30.32,10.0,South,5.8,-,N/A,,Clear,180,2013-03-06 21:54:00
4:54 PM,37.9,21.0,51,30.31,10.0,SE,10.4,-,N/A,,Clear,140,2013-03-06 22:54:00
5:54 PM,37.0,21.9,54,30.29,10.0,SSE,8.1,-,N/A,,Clear,150,2013-03-06 23:54:00
6:54 PM,30.9,21.9,69,30.29,10.0,SSE,8.1,-,N/A,,Clear,160,2013-03-07 00:54:00
7:54 PM,28.9,21.9,75,30.30,10.0,SE,5.8,-,N/A,,Clear,140,2013-03-07 01:54:00
8:54 PM,30.0,21.9,72,30.29,9.0,ESE,13.8,-,N/A,,Clear,110,2013-03-07 02:54:00
9:54 PM,28.0,21.0,75,30.29,8.0,ESE,11.5,-,N/A,,Clear,120,2013-03-07 03:54:00
10:54 PM,27.0,21.0,78,30.30,8.0,SE,12.7,-,N/A,,Clear,130,2013-03-07 04:54:00
11:54 PM,26.1,21.0,81,30.31,8.0,SE,9.2,-,N/A,,Clear,130,2013-03-07 05:54:00